Location: Newark
(34.1333°N, 7.9667°W)
Time: 18:30:41
(UTC+00:00)

Transit 2A - Pass Details

Date: 20 June 2021
Orbit: 598 x 960 km, 66.7° (Epoch: 02 August)

Event Time Altitude Azimuth Distance (km) Brightness Sun altitude
Rises 15:20:07 0° 171° (S) 2,901 9.0 52.3°
Reaches altitude 10° 15:22:56 10° 154° (SSE) 1,962 8.1 51.7°
Maximum altitude 15:26:02 19° 108° (ESE) 1,436 7.3 51.0°
Drops below altitude 10° 15:29:07 10° 62° (ENE) 1,936 7.9 50.4°
Sets 15:31:51 0° 45° (NE) 2,847 8.7 49.8°
